Location: Bron Breck
(40.6655°N, 111.8083°W)
Time: 23:53:17
(UTC+00:00)

N. Korean satellite - Pass Details

Date: 03 March 2021
Orbit: 453 x 499 km, 97.2° (Epoch: 11 April)

Event Time Altitude Azimuth Distance (km) Brightness Sun altitude
Rises 11:44:18 0° 37° (NE) 2,527 10.9 -25.9°
Maximum altitude 11:48:51 11° 91° (E) 1,590 10.1 -25.1°
Drops below altitude 10° 11:49:56 10° 109° (ESE) 1,659 10.0 -24.9°
Sets 11:53:25 0° 146° (SE) 2,545 10.5 -24.2°
